Vertical_Velocity
-1 -12 -1 1 0 0 -0 0 0 -2 -0 0 0 -0 -2 -1 0 -0 1 4 1 3 3 2 1 -0 1 -0 0 -2 -2 4 -1 -3 -3 -2 -0 3 5 2 2 -1 3 5
-9 -1 0 -1 -1 -1 -0 -0 -2 -4 -1 0 -1 -2 -1 -0 2 1 -1 2 2 -0 2 2 -1 -4 -5 -3 -1 -1 3 1 2 -3 1 4 2 1 -1 -1 0 7 5 -2
-4 1 -1 -2 -1 -3 -1 -1 -0 -1 -2 -1 -1 -4 -4 -3 -0 1 1 1 1 3 -2 -4 -2 -2 1 2 2 1 0 6 9 7 5 6 5 3 1 -0 -4 -5 -1 6
0 1 -1 -1 -0 -1 0 -0 0 0 -2 -3 -3 -5 -3 -1 -1 -1 -1 -1 1 -2 -1 0 1 1 3 3 1 4 7 3 5 3 3 3 1 -1 -0 3 0 -1 3 1
-3 -1 -1 -2 0 0 -8 1 0 0 -0 -3 -7 -7 -11 -1 -2 -0 -1 1 -1 -2 2 0 2 5 0 3 5 7 8 4 5 5 1 -5 -5 4 2 -1 -2 -0 -1 -1
1 1 -1 1 -0 0 -1 -2 -2 -1 -1 -5 -1 -4 -7 -1 -1 -1 0 -1 -1 7 5 5 1 4 5 8 7 4 1 -3 -2 -4 -1 1 1 0 -7 -6 -4 -1 1 -0
-5 -1 -2 -0 -4 -4 -6 -5 -5 -9 -9 -6 -1 -1 -9 -2 0 0 -1 1 6 1 -0 6 6 5 5 -1 -3 -2 -5 -2 -2 0 2 3 -0 -8 -4 2 -2 -3 -4 -3
-1 -13 -1 -3 -0 1 1 -4 -6 -3 -2 -4 -2 -2 -6 2 2 3 2 2 3 2 1 2 2 1 -2 -1 -2 -2 -2 -4 -2 -3 -7 -4 -1 2 -0 -2 -2 -3 -2 -4
-2 -4 -4 0 0 -3 -2 -5 -2 -4 -1 -4 -3 -6 -4 -0 -2 -6 -0 -2 -1 1 1 0 2 1 -1 -1 -1 -10 -9 -6 -2 1 1 2 3 3 -8 -10 -9 -3 0 1
-0 -4 -1 -4 -1 -2 -8 -3 -10 -5 -4 -2 -4 -2 -5 -2 -3 -1 0 1 2 1 -2 -5 -5 -5 -3 -2 -4 5 5 0 0 -0 0 -5 -5 -4 -2 -2 2 -0 7 6
-0 -4 -12 -4 -2 1 -6 -2 -3 -5 -3 -3 -1 -9 -4 -2 0 -1 1 0 -1 -4 -7 -4 -0 1 0 4 7 2 -3 -3 -4 -3 -3 -4 -2 -5 -9 -3 -3 2 10 8
0 -3 -1 -3 -1 0 -1 -1 -2 -7 -5 -1 -3 -14 -0 -0 -1 -1 -1 0 -3 -1 -2 -5 -1 3 9 1 2 -2 -0 -5 -2 -1 -1 -5 -1 -5 -0 -1 7 1 6 2
-2 -3 -4 -15 -11 -5 -2 -0 -1 -1 -2 -3 -1 -13 -1 1 2 0 -2 -3 -4 -3 -1 2 5 2 0 -2 0 -0 -3 -3 -1 -0 -3 -0 -1 -4 3 6 -0 7 3 -2
-2 -0 -6 -7 -9 -1 1 0 -0 -3 1 -3 -8 -9 -10 -5 -1 -2 -2 2 0 2 1 -3 -3 -1 -1 -1 1 -1 -2 2 3 3 -0 -5 -9 -4 1 6 5 1 3 -1
-5 -1 1 -1 -1 1 1 1 -1 1 -4 -1 -15 -0 -5 -3 -1 -3 -2 -2 -3 -7 -2 -1 2 -0 1 0 -3 -0 6 -0 -3 -2 1 -0 -4 3 3 6 6 1 0 2
-0 -3 0 -1 -1 1 0 -1 0 -0 -1 1 2 -7 -1 -0 2 -2 -2 -2 -3 2 4 2 1 1 -2 -7 -1 3 3 -3 0 2 -1 -3 1 0 9 -5 -4 -7 -6 -4
-0 -2 -2 -5 0 -2 -8 -3 -1 -1 -0 -3 -0 -10 -0 -1 -1 -2 -4 2 4 1 -0 -3 -4 -6 3 1 0 -3 -3 -3 -5 -1 -8 -1 -1 -5 -8 -4 -1 -0 -4 -3
-1 -1 -1 -2 -2 -4 -22 -0 -1 -2 -2 -1 -0 -1 1 -2 -2 -3 -2 2 4 5 6 -0 0 -2 -3 3 0 -0 2 1 -3 2 -3 0 -3 1 1 0 -0 0 -0 -3
-2 -2 -1 0 -1 -10 -8 -7 1 -3 -10 -0 -0 -1 -1 1 6 -1 6 -2 4 -1 -20 -10 11 -4 -1 -1 -2 -4 0 -3 -1 -1 6 -9 -2 1 0 -0 -2 -1 -2 -0
-2 -2 -5 -0 1 -1 -11 -2 0 -0 -6 -0 2 -0 0 0 0 -3 6 -0 -4 -10 -5 -7 0 -0 0 1 3 1 3 -1 -2 -2 -1 -3 2 2 -2 -1 -2 0 0 0
-1 -0 -1 -1 -1 -9 -5 -3 1 -8 -12 -3 1 -0 3 2 8 4 -8 -3 -1 -7 -1 6 6 -2 -3 -2 -4 -2 0 -1 1 -0 -1 2 1 -0 -1 -1 -1 -1 -2 -0
-2 -2 -1 0 1 -11 2 -1 -5 -12 -4 -4 -2 3 -2 2 -4 -5 -6 -9 -5 1 -3 0 -4 -1 -1 1 0 3 0 -7 2 3 -1 -1 1 -1 -2 -2 -1 -0 -2 -0
-5 -11 -6 -11 -16 -3 -2 3 5 6 5 0 0 6 -4 -0 0 -5 -0 -4 -0 1 -1 2 1 -2 5 0 -2 -1 5 1 1 1 0 0 -0 -1 -1 -2 -2 -1 -0 -1
-2 2 -0 1 -7 -3 -1 -7 13 0 1 2 -0 -3 -1 -9 -3 -5 1 3 1 1 -2 3 1 2 -4 -2 -1 -1 2 2 2 -0 2 0 -2 -1 -1 1 2 0 -2 -2
-8 2 -1 -4 -7 -4 -5 4 1 -0 -2 1 8 0 -1 4 0 5 0 -1 -3 -0 2 1 1 1 -4 -2 -3 1 4 1 1 3 2 1 -0 -1 -1 3 -0 -1 1 0
-2 -5 -2 -7 1 3 -2 -2 -3 1 -2 -3 -10 -7 1 7 2 -1 -6 1 0 -7 -0 1 2 1 -1 1 0 -1 1 2 3 0 3 2 1 1 0 -2 -0 5 1 2
Height
1525 1535 1543 1537 1536 1536 1537 1541 1543 1538 1534 1535 1534 1533 1524 1516 1514 1513 1515 1518 1522 1526 1527 1529 1529 1530 1532 1535 1539 1540 1541 1540 1539 1539 1538 1537 1535 1533 1530 1528 1526 1524 1522 1520
1534 1541 1536 1536 1537 1537 1537 1542 1546 1540 1535 1536 1534 1532 1525 1520 1520 1519 1519 1521 1523 1525 1528 1529 1530 1532 1533 1535 1537 1538 1539 1539 1538 1537 1536 1534 1532 1530 1527 1526 1524 1521 1518 1515
1540 1539 1536 1537 1541 1542 1541 1541 1542 1545 1539 1536 1537 1535 1532 1525 1523 1523 1523 1525 1526 1528 1530 1531 1532 1533 1534 1535 1536 1537 1537 1536 1535 1533 1532 1530 1528 1526 1523 1521 1518 1516 1512 1508
1539 1538 1539 1541 1542 1543 1547 1538 1540 1542 1544 1549 1541 1552 1538 1534 1528 1527 1528 1528 1529 1530 1531 1532 1532 1533 1534 1535 1535 1535 1534 1533 1531 1529 1528 1525 1523 1520 1518 1514 1510 1507 1504 1499
1546 1542 1543 1545 1544 1541 1544 1538 1538 1537 1543 1545 1549 1555 1545 1536 1533 1531 1529 1529 1530 1530 1531 1533 1532 1532 1533 1532 1532 1532 1531 1529 1528 1527 1524 1522 1519 1515 1510 1507 1502 1499 1494 1491
1545 1543 1543 1543 1541 1540 1538 1539 1541 1545 1548 1562 1553 1556 1553 1544 1538 1534 1531 1531 1532 1533 1533 1533 1532 1532 1532 1531 1531 1530 1529 1528 1527 1524 1521 1517 1513 1507 1502 1499 1494 1489 1484 1479
1552 1548 1545 1543 1545 1541 1542 1550 1571 1571 1577 1572 1551 1556 1549 1537 1535 1532 1532 1532 1533 1534 1533 1532 1532 1531 1530 1530 1530 1529 1528 1526 1523 1519 1515 1511 1507 1503 1498 1492 1485 1480 1475 1471
1567 1567 1550 1546 1547 1550 1549 1555 1579 1577 1590 1578 1555 1553 1546 1537 1535 1534 1535 1535 1533 1532 1531 1531 1531 1530 1529 1529 1528 1527 1524 1522 1519 1516 1512 1507 1503 1497 1491 1485 1479 1474 1470 1466
1572 1562 1550 1548 1548 1549 1550 1564 1559 1578 1603 1592 1565 1550 1540 1538 1539 1537 1536 1535 1534 1534 1533 1533 1532 1531 1530 1529 1527 1524 1520 1517 1514 1510 1505 1502 1497 1490 1483 1478 1473 1468 1465 1462
1561 1566 1553 1550 1549 1549 1551 1556 1569 1579 1593 1585 1566 1559 1552 1544 1542 1540 1539 1538 1537 1536 1535 1535 1534 1532 1530 1527 1524 1521 1516 1512 1508 1504 1498 1494 1489 1482 1474 1469 1464 1463 1461 1459
1560 1564 1560 1553 1558 1559 1560 1566 1567 1570 1580 1591 1591 1566 1545 1544 1541 1541 1540 1539 1538 1538 1537 1535 1532 1528 1525 1522 1519 1513 1510 1507 1503 1498 1493 1489 1483 1474 1466 1460 1457 1459 1460 1459
1563 1571 1576 1560 1557 1556 1558 1562 1567 1586 1582 1587 1593 1563 1539 1538 1538 1538 1539 1538 1538 1536 1533 1530 1527 1524 1523 1519 1514 1510 1506 1502 1498 1494 1488 1483 1476 1469 1462 1456 1454 1457 1458 1456
1562 1575 1585 1568 1563 1561 1560 1561 1564 1574 1581 1575 1590 1560 1538 1537 1537 1538 1538 1536 1535 1532 1528 1524 1521 1519 1518 1514 1510 1505 1502 1497 1493 1488 1483 1478 1472 1466 1462 1455 1454 1453 1453 1452
1561 1572 1575 1586 1572 1567 1566 1562 1563 1567 1573 1566 1562 1548 1538 1537 1536 1534 1533 1532 1530 1526 1522 1520 1517 1516 1514 1509 1504 1501 1497 1493 1488 1482 1477 1471 1468 1465 1461 1457 1453 1453 1453 1450
1564 1571 1571 1569 1566 1563 1559 1558 1559 1565 1560 1562 1546 1549 1538 1534 1532 1532 1531 1529 1525 1521 1519 1516 1513 1511 1507 1503 1499 1495 1492 1488 1483 1477 1472 1467 1464 1463 1460 1458 1455 1452 1451 1449
1566 1575 1570 1570 1566 1565 1562 1553 1553 1552 1551 1551 1546 1542 1531 1529 1530 1530 1527 1524 1520 1517 1516 1514 1509 1505 1502 1499 1495 1492 1488 1483 1478 1473 1469 1465 1462 1460 1458 1455 1453 1451 1449 1447
1568 1577 1581 1578 1572 1570 1561 1544 1546 1543 1542 1540 1541 1530 1527 1528 1529 1527 1521 1518 1515 1513 1511 1509 1508 1505 1501 1496 1491 1486 1482 1479 1475 1470 1466 1463 1461 1457 1457 1455 1452 1448 1446 1443
1572 1577 1582 1584 1571 1575 1542 1537 1536 1538 1535 1531 1531 1528 1528 1527 1524 1521 1518 1513 1511 1512 1509 1506 1502 1500 1497 1493 1488 1483 1479 1475 1471 1467 1463 1462 1460 1456 1453 1451 1448 1444 1441 1438
1562 1572 1576 1570 1566 1559 1541 1531 1531 1533 1534 1526 1527 1527 1524 1522 1516 1513 1509 1511 1511 1510 1508 1507 1500 1494 1493 1488 1483 1480 1475 1472 1469 1467 1462 1460 1457 1453 1449 1446 1443 1440 1436 1433
1568 1569 1576 1576 1570 1560 1536 1529 1530 1530 1537 1527 1527 1526 1524 1520 1518 1511 1511 1507 1506 1506 1503 1499 1495 1490 1486 1481 1477 1475 1473 1469 1468 1465 1461 1458 1455 1450 1446 1442 1439 1436 1432 1428
1574 1572 1564 1562 1565 1555 1529 1527 1528 1540 1534 1524 1524 1521 1519 1519 1517 1514 1511 1508 1505 1500 1495 1493 1490 1485 1480 1477 1474 1470 1468 1466 1464 1462 1459 1456 1451 1446 1442 1439 1435 1431 1427 1424
1562 1570 1573 1570 1567 1559 1526 1530 1535 1527 1520 1520 1517 1515 1514 1511 1510 1509 1506 1502 1497 1494 1492 1490 1485 1480 1476 1473 1469 1466 1463 1463 1460 1457 1455 1452 1448 1443 1439 1435 1431 1427 1423 1418
1559 1547 1547 1548 1543 1526 1526 1525 1526 1522 1519 1516 1514 1512 1509 1511 1509 1506 1501 1497 1493 1489 1487 1486 1480 1476 1474 1468 1465 1463 1460 1458 1457 1455 1452 1448 1444 1440 1436 1431 1427 1423 1419 1414
1543 1538 1541 1538 1526 1522 1519 1522 1523 1519 1518 1514 1513 1512 1511 1508 1506 1502 1496 1492 1489 1485 1482 1479 1475 1472 1469 1466 1463 1460 1457 1455 1454 1451 1448 1444 1440 1436 1432 1428 1424 1420 1415 1410
1539 1537 1532 1528 1521 1519 1519 1519 1518 1516 1514 1514 1513 1512 1510 1506 1502 1498 1493 1489 1486 1482 1477 1473 1470 1466 1464 1463 1460 1457 1454 1451 1449 1447 1444 1440 1437 1433 1428 1424 1420 1416 1413 1408
1530 1529 1530 1518 1518 1517 1516 1514 1514 1513 1511 1512 1512 1510 1507 1504 1499 1495 1490 1485 1480 1476 1472 1467 1464 1462 1460 1458 1455 1452 1449 1447 1445 1443 1440 1437 1433 1429 1424 1420 1417 1415 1411 1406